Location: Carnetin
(48.9010°N, 2.7059°E)
Time: 12:33:03
(UTC+00:00)

YAOGAN 1 - Pass Details

Date: 24 October 2021
Orbit: 618 x 620 km, 97.9° (Epoch: 05 December)

Event Time Altitude Azimuth Distance (km) Brightness Sun altitude
Rises 18:43:18 0° 173° (S) 2,884 5.9 -20.5°
Reaches altitude 10° 18:45:30 10° 176° (S) 1,983 5.0 -20.9°
Maximum altitude 18:49:47 64° 259° (WSW) 692 2.9 -21.6°
Drops below altitude 10° 18:54:06 10° 341° (NNW) 2,000 5.5 -22.3°
Sets 18:56:20 0° 344° (NNW) 2,911 6.3 -22.6°
